Location: Ariel
(45.9570°N, 122.5700°W)
Time: 02:34:33
(UTC-07:00)

Transit 4A - Pass Details

Date: 22 July 2019
Orbit: 863 x 981 km, 66.8° (Epoch: 24 August)

Event Time Altitude Azimuth Distance (km) Brightness Sun altitude
Rises 10:07:51 0° 329° (NNW) 3,680 10.7 43.7°
Reaches altitude 10° 10:10:36 10° 336° (NNW) 2,719 10.1 44.2°
Maximum altitude 10:16:39 44° 47° (NE) 1,304 9.6 45.2°
Drops below altitude 10° 10:22:30 10° 119° (ESE) 2,639 11.3 46.1°
Sets 10:25:07 0° 125° (SE) 3,560 11.6 46.6°
